TimeCDT,TemperatureF,Dew PointF,Humidity,Sea Level PressureIn,VisibilityMPH,Wind Direction,Wind SpeedMPH,Gust SpeedMPH,PrecipitationIn,Events,Conditions,WindDirDegrees,DateUTC
12:54 AM,30.0,16.0,56,30.39,10.0,ESE,3.5,-,N/A,,Clear,120,2013-04-21 05:54:00
1:54 AM,30.0,17.1,59,30.40,10.0,SE,5.8,-,N/A,,Clear,130,2013-04-21 06:54:00
2:54 AM,30.9,18.0,59,30.40,10.0,SE,5.8,-,N/A,,Clear,130,2013-04-21 07:54:00
3:54 AM,30.9,19.0,61,30.40,10.0,SE,4.6,-,N/A,,Overcast,130,2013-04-21 08:54:00
4:54 AM,32.0,19.9,61,30.40,10.0,SSE,9.2,-,N/A,,Overcast,160,2013-04-21 09:54:00
5:54 AM,30.9,21.9,69,30.42,10.0,South,6.9,-,N/A,,Overcast,180,2013-04-21 10:54:00
6:19 AM,30.2,24.8,80,30.39,1.8,South,11.5,-,0.00,Snow,Light Snow,190,2013-04-21 11:19:00
6:27 AM,28.4,24.8,86,30.39,0.8,South,9.2,-,0.00,Snow,Light Snow,180,2013-04-21 11:27:00
6:41 AM,28.4,26.6,93,30.40,0.8,South,8.1,-,0.00,Snow,Light Snow,170,2013-04-21 11:41:00
6:54 AM,28.9,27.0,92,30.45,0.5,SSE,5.8,-,0.00,Fog-Snow,Snow,160,2013-04-21 11:54:00
7:17 AM,28.4,28.4,100,30.41,0.8,SSE,6.9,-,0.01,Snow,Light Snow,160,2013-04-21 12:17:00
7:54 AM,30.0,28.0,92,30.46,0.8,SSE,9.2,-,0.02,Snow,Light Snow,160,2013-04-21 12:54:00
8:01 AM,30.2,28.4,93,30.41,0.8,SSE,9.2,-,0.00,Snow,Light Snow,150,2013-04-21 13:01:00
8:11 AM,30.2,28.4,93,30.41,1.0,SSE,10.4,-,0.00,Snow,Light Snow,150,2013-04-21 13:11:00
8:27 AM,30.2,28.4,93,30.41,1.2,SSE,10.4,-,0.00,Snow,Light Snow,160,2013-04-21 13:27:00
8:43 AM,30.2,28.4,93,30.41,1.0,SSE,10.4,-,0.00,Snow,Light Snow,160,2013-04-21 13:43:00
8:54 AM,30.9,28.9,92,30.46,0.8,SSE,11.5,-,0.00,Snow,Light Snow,160,2013-04-21 13:54:00
9:01 AM,30.2,28.4,93,30.40,1.0,SSE,12.7,-,0.00,Snow,Light Snow,160,2013-04-21 14:01:00
9:21 AM,32.0,28.4,87,30.40,1.2,SSE,12.7,-,0.00,Snow,Light Snow,150,2013-04-21 14:21:00
9:35 AM,32.0,30.2,93,30.40,3.0,SSE,11.5,-,0.00,Snow,Light Snow,160,2013-04-21 14:35:00
9:50 AM,32.0,28.4,87,30.40,1.8,SSE,13.8,-,0.00,Snow,Light Snow,160,2013-04-21 14:50:00
9:54 AM,32.0,28.9,88,30.46,1.0,SSE,13.8,-,0.00,Snow,Light Snow,160,2013-04-21 14:54:00
10:05 AM,32.0,28.4,87,30.40,2.0,SSE,11.5,21.9,0.00,Snow,Light Snow,160,2013-04-21 15:05:00
10:13 AM,32.0,28.4,87,30.39,6.0,SSE,15.0,-,0.00,Snow,Light Snow,150,2013-04-21 15:13:00
10:42 AM,32.0,28.4,87,30.38,2.5,SSE,16.1,25.3,0.00,Snow,Light Snow,150,2013-04-21 15:42:00
10:51 AM,32.0,28.4,87,30.38,1.8,SSE,16.1,24.2,0.00,Snow,Light Snow,160,2013-04-21 15:51:00
10:54 AM,32.0,28.9,88,30.43,1.5,SSE,16.1,24.2,0.00,Snow,Light Snow,160,2013-04-21 15:54:00
11:21 AM,32.0,28.4,87,30.36,2.5,SSE,13.8,23.0,0.00,Snow,Light Snow,150,2013-04-21 16:21:00
11:34 AM,32.0,28.4,87,30.36,1.2,SSE,16.1,25.3,0.00,Snow,Light Snow,150,2013-04-21 16:34:00
11:41 AM,32.0,28.4,87,30.36,0.8,SSE,15.0,24.2,0.00,Snow,Light Snow,150,2013-04-21 16:41:00
11:54 AM,32.0,30.0,92,30.41,0.5,SSE,17.3,21.9,0.00,Fog-Snow,Snow,150,2013-04-21 16:54:00
12:34 PM,32.0,30.2,93,30.34,1.2,SSE,12.7,23.0,0.01,Snow,Light Snow,150,2013-04-21 17:34:00
12:40 PM,32.0,30.2,93,30.33,2.0,SSE,17.3,23.0,0.01,Snow,Light Snow,150,2013-04-21 17:40:00
12:54 PM,32.0,28.9,88,30.38,3.0,SE,15.0,-,0.02,Snow,Light Snow,140,2013-04-21 17:54:00
1:54 PM,34.0,30.0,85,30.35,10.0,SE,17.3,-,0.00,,Overcast,130,2013-04-21 18:54:00
2:16 PM,33.8,30.2,87,30.29,10.0,SE,15.0,24.2,N/A,,Mostly Cloudy,130,2013-04-21 19:16:00
2:30 PM,35.6,30.2,81,30.29,10.0,SE,16.1,-,N/A,,Overcast,140,2013-04-21 19:30:00
2:54 PM,36.0,30.0,79,30.33,10.0,SE,15.0,24.2,N/A,,Overcast,140,2013-04-21 19:54:00
3:44 PM,37.4,32.0,81,30.25,10.0,SE,16.1,-,0.00,,Mostly Cloudy,130,2013-04-21 20:44:00
3:54 PM,39.0,33.1,79,30.29,10.0,SE,16.1,-,0.00,,Mostly Cloudy,130,2013-04-21 20:54:00
4:54 PM,37.9,33.1,83,30.25,10.0,SE,13.8,-,N/A,,Mostly Cloudy,130,2013-04-21 21:54:00
5:54 PM,39.0,33.1,79,30.23,10.0,SE,15.0,-,N/A,,Clear,130,2013-04-21 22:54:00
6:54 PM,39.0,32.0,76,30.21,10.0,ESE,12.7,-,N/A,,Clear,120,2013-04-21 23:54:00
7:54 PM,37.0,32.0,82,30.21,10.0,ESE,8.1,-,N/A,,Clear,120,2013-04-22 00:54:00
8:54 PM,37.9,32.0,79,30.19,10.0,ESE,9.2,-,N/A,,Partly Cloudy,120,2013-04-22 01:54:00
9:54 PM,39.0,33.1,79,30.19,10.0,ESE,8.1,-,0.00,Rain,Light Rain,120,2013-04-22 02:54:00
10:54 PM,42.1,36.0,79,30.21,10.0,SSW,8.1,-,0.00,Rain,Light Rain,200,2013-04-22 03:54:00
11:54 PM,39.0,37.0,93,30.20,10.0,South,8.1,-,0.00,Rain,Light Rain,170,2013-04-22 04:54:00